[[{"header":{"parameterUnit":"m.s-1","parameterCategory":1,"la1":30.2991,"la2":30.254,"lo1":-89.0895,"lo2":-89.0444,"dy":0.0017,"dx":0.0017,"nx":28,"ny":28,"refTime":"2025-07-21T21:00:00:Z","depth":0,"parameterNumber":2,"parameterNumberName":"U-component_of_WINDS"},"data":[0,0,0,0,0,0,0,0,0,0,0,0,0,0,0,0,0,0,0,0,0,0,0,0,0,0,0,0,0,0,0,0,0,0,0,0,0,0,0,0,0,0,0,0,0,0,0,0,0,0,0,0,0,0,0,0,0,0,1.8026,1.8027,0,1.8087,1.8087,1.8088,1.813,1.813,1.813,1.8131,1.8193,1.8194,1.8196,0,0,0,0,0,0,0,0,0,0,0,0,0,1.795,1.7951,1.8026,1.8027,1.8028,1.8086,1.8087,1.8088,1.813,1.813,1.813,1.8131,1.8193,1.8194,1.8196,0,0,0,0,0,0,0,0,0,0,0,0,0,1.7994,1.7951,1.8026,1.8056,1.8059,1.8086,1.8087,1.8088,1.813,1.813,1.8131,1.8131,1.8192,1.8194,1.8196,1.8199,0,0,1.8202,1.8203,0,0,0,0,0,0,0,0,1.7991,1.7997,1.8051,1.8054,1.8057,1.8101,1.8083,1.8125,1.8129,1.8103,1.8131,1.8131,1.8162,1.8167,1.8177,1.8202,1.8205,1.8202,1.8204,1.8205,1.8205,0,0,0,0,0,0,0,1.7988,1.7994,1.805,1.8051,1.8056,1.8067,1.8073,1.8091,1.8129,1.8105,1.8108,1.8115,1.8164,1.8175,1.8179,1.8206,1.8202,1.8204,1.8206,1.8206,1.8239,1.8238,0,0,0,0,0,0,1.798,1.7991,1.8048,1.8052,1.8025,1.8068,1.8075,1.8087,1.8129,1.8136,1.8114,1.8117,1.8171,1.8176,1.8181,1.8189,1.8205,1.8207,1.8208,1.8239,1.8238,1.8238,0,0,0,0,0,0,1.7978,1.7985,1.8046,1.8023,1.8031,1.8068,1.8081,1.8088,1.8098,1.8136,1.8143,1.8118,1.8172,1.8178,1.8195,1.8191,1.8207,1.8209,1.8239,1.8239,1.8238,1.8203,0,0,0,0,0,0,1.7976,1.7984,1.7985,1.8022,1.8032,1.8058,1.8081,1.8088,1.8102,1.8105,1.8141,1.8148,1.8173,1.8191,1.8197,1.8194,1.8211,1.824,1.8239,1.8238,1.8204,1.8201,1.8198,0,0,0,0,0,1.7973,1.7972,1.7985,1.7991,1.8034,1.8057,1.8063,1.8091,1.8101,1.8103,1.8127,1.8147,1.8191,1.8193,1.8199,1.8197,1.824,1.8239,1.8239,1.8206,1.8202,1.8198,0,0,0,0,0,0,1.7933,1.7978,1.7992,1.8003,1.8026,1.8064,1.8067,1.8086,1.8107,1.8109,1.8143,1.8151,1.8165,1.8183,1.8184,1.8204,1.8218,1.8218,1.8191,1.8187,1.8184,1.818,1.8213,0,0,0,0,0,1.7926,1.794,1.7979,1.7985,1.7996,1.8029,1.804,1.806,1.8086,1.8096,1.8121,1.8146,1.8166,1.8178,1.8197,1.8208,1.8217,1.821,1.8206,1.8204,1.8204,1.8212,1.8209,1.8235,1.8235,1.8235,0,0,1.791,1.7936,1.7943,1.7977,1.7998,1.8013,1.8037,1.8052,1.8064,1.8098,1.8115,1.8135,1.8165,1.8179,1.8186,1.8194,1.8199,1.8203,1.82,1.8202,1.8211,1.8208,1.8206,1.8235,1.8235,1.8235,0,0,1.789,1.791,1.7918,1.7939,1.7969,1.7992,1.7994,1.803,1.8045,1.8063,1.8089,1.8104,1.8137,1.8157,1.8172,1.8162,1.8181,1.8167,1.8151,1.8158,1.8156,1.8155,1.8152,1.815,1.8167,1.8167,1.8167,0,1.7866,1.789,1.792,1.7934,1.7949,1.7981,1.799,1.8008,1.8044,1.8054,1.8062,1.8105,1.8127,1.8147,1.8145,1.8155,1.8159,1.8163,1.8154,1.8153,1.8152,1.8149,1.8148,1.8165,1.8165,1.8166,1.8166,0,1.786,1.7877,1.7879,1.7913,1.7929,1.794,1.7973,1.7985,1.8004,1.8026,1.8045,1.8073,1.81,1.8106,1.8124,1.8129,1.8133,1.8148,1.8163,1.8147,1.8145,1.8145,1.8163,1.8163,1.8164,1.8164,0,0,1.7815,1.7867,1.7867,1.7884,1.7921,1.7934,1.7948,1.7974,1.7984,1.8008,1.8021,1.8049,1.8063,1.808,1.8101,1.8108,1.8099,1.8122,1.8123,1.8117,1.8107,1.8096,1.8094,1.8112,1.8112,1.8112,1.8105,0,1.78,1.7826,1.7854,1.787,1.7886,1.7918,1.793,1.7955,1.7976,1.7994,1.8018,1.8037,1.8054,1.8065,1.8073,1.8098,1.8098,1.8099,1.8125,1.8126,1.8117,1.8093,1.8081,1.8073,1.8104,1.8104,1.8104,0,1.7786,1.7809,1.7826,1.7864,1.7872,1.7882,1.7909,1.7925,1.7954,1.797,1.7989,1.8013,1.803,1.8043,1.8068,1.8069,1.8081,1.8096,1.8096,1.81,1.8114,1.8096,1.807,1.8069,1.8103,1.8103,1.8103,0,1.7752,1.7787,1.7803,1.7816,1.7859,1.7866,1.7885,1.7914,1.7929,1.7953,1.7963,1.7989,1.8004,1.8024,1.8054,1.8061,1.8076,1.8092,1.809,1.8089,1.8091,1.809,1.8067,1.8099,1.8099,1.8099,1.8099,0,1.7733,1.7742,1.7788,1.7797,1.781,1.7843,1.7855,1.7876,1.7903,1.7918,1.7947,1.7961,1.8,1.8018,1.8042,1.806,1.8066,1.8079,1.8086,1.8077,1.8075,1.8085,1.8087,1.8099,1.8099,1.8099,1.8099,0,1.7696,1.7727,1.7746,1.7786,1.7797,1.7804,1.7839,1.785,1.7874,1.7893,1.7899,1.7937,1.796,1.7993,1.8026,1.8042,1.8057,1.8066,1.8047,1.805,1.8047,1.8047,1.8029,1.8029,1.806,1.806,1.806,0,1.7682,1.769,1.7732,1.7744,1.7761,1.778,1.7796,1.783,1.7845,1.788,1.7887,1.7913,1.7935,1.7972,1.8002,1.8029,1.804,1.8032,1.8044,1.8035,1.804,1.8039,1.8041,1.8028,1.8028,1.8027,1.8027,0,1.7653,1.7669,1.7689,1.7716,1.7734,1.7756,1.778,1.7789,1.7828,1.7844,1.7868,1.7886,1.7921,1.7946,1.7977,1.7997,1.8019,1.8023,1.8024,1.8015,1.8004,1.8011,1.8039,1.8023,1.8024,1.8024,1.8024,1.8024,1.7628,1.7637,1.7668,1.7691,1.7713,1.7735,1.7748,1.7774,1.7795,1.7825,1.7845,1.7868,1.79,1.7943,1.7963,1.7983,1.7991,1.7992,1.7993,1.7993,1.799,1.8001,1.7988,1.7988,1.7989,1.7989,1.7989,0,1.7601,1.7623,1.7644,1.7677,1.7695,1.7714,1.7743,1.7757,1.7777,1.7804,1.7826,1.7855,1.7881,1.7914,1.7942,1.7952,1.7963,1.7958,1.7958,1.7963,1.798,1.7977,1.7949,1.7949,1.7949,1.7949,1.7949,1.7949,1.759,1.7607,1.7626,1.7655,1.7677,1.7701,1.7715,1.7736,1.7758,1.7789,1.7811,1.7832,1.7863,1.7894,1.7918,1.7928,1.7937,1.7929,1.7942,1.7958,1.7961,1.7965,1.7961,1.7931,1.7931,1.7923,1.7923,1.7923]},{"header":{"parameterUnit":"m.s-1","parameterCategory":1,"la1":30.2991,"la2":30.254,"lo1":-89.0895,"lo2":-89.0444,"dy":0.0017,"dx":0.0017,"nx":28,"ny":28,"refTime":"2025-07-21T21:00:00:Z","depth":0,"parameterNumber":3,"parameterNumberName":"V-component_of_WINDS"},"data":[0,0,0,0,0,0,0,0,0,0,0,0,0,0,0,0,0,0,0,0,0,0,0,0,0,0,0,0,0,0,0,0,0,0,0,0,0,0,0,0,0,0,0,0,0,0,0,0,0,0,0,0,0,0,0,0,0,0,-1.3413,-1.3414,0,-1.3497,-1.3498,-1.3499,-1.3512,-1.3512,-1.3511,-1.351,-1.3597,-1.36,-1.3603,0,0,0,0,0,0,0,0,0,0,0,0,0,-1.3264,-1.3267,-1.3413,-1.3414,-1.3415,-1.3497,-1.3498,-1.35,-1.3513,-1.3512,-1.3511,-1.351,-1.3596,-1.36,-1.3603,0,0,0,0,0,0,0,0,0,0,0,0,0,-1.3337,-1.3268,-1.3413,-1.3431,-1.3434,-1.3497,-1.3498,-1.35,-1.3513,-1.3512,-1.351,-1.3509,-1.3595,-1.3599,-1.3604,-1.3654,0,0,-1.3618,-1.362,0,0,0,0,0,0,0,0,-1.3332,-1.3342,-1.3427,-1.343,-1.3433,-1.3493,-1.3478,-1.3552,-1.3513,-1.3483,-1.351,-1.3509,-1.3563,-1.3571,-1.3589,-1.3658,-1.3662,-1.3618,-1.3621,-1.3623,-1.3624,0,0,0,0,0,0,0,-1.3327,-1.3339,-1.3446,-1.3429,-1.3432,-1.3436,-1.3445,-1.3492,-1.3528,-1.3485,-1.3486,-1.3496,-1.3565,-1.3584,-1.3591,-1.3663,-1.3618,-1.3622,-1.3625,-1.3627,-1.3781,-1.3783,0,0,0,0,0,0,-1.3319,-1.3334,-1.3444,-1.3449,-1.3379,-1.344,-1.345,-1.3475,-1.3528,-1.3535,-1.3497,-1.3497,-1.3577,-1.3586,-1.3594,-1.3659,-1.3623,-1.3627,-1.363,-1.378,-1.3782,-1.3783,0,0,0,0,0,0,-1.3316,-1.3329,-1.344,-1.3392,-1.3406,-1.3443,-1.3472,-1.3477,-1.3497,-1.3537,-1.3544,-1.3511,-1.3577,-1.3588,-1.364,-1.3662,-1.3629,-1.3633,-1.3778,-1.378,-1.3782,-1.3787,0,0,0,0,0,0,-1.3311,-1.3327,-1.3346,-1.3392,-1.3409,-1.3484,-1.3473,-1.348,-1.3505,-1.3505,-1.3551,-1.3558,-1.3577,-1.3633,-1.3644,-1.3668,-1.3637,-1.3776,-1.3779,-1.3782,-1.3785,-1.3789,-1.3792,0,0,0,0,0,-1.3306,-1.3344,-1.3347,-1.336,-1.3434,-1.3485,-1.3495,-1.3516,-1.3506,-1.3527,-1.3552,-1.3556,-1.3657,-1.3638,-1.3651,-1.3676,-1.3775,-1.3778,-1.3781,-1.3784,-1.3788,-1.3792,0,0,0,0,0,0,-1.33,-1.335,-1.3355,-1.3408,-1.3443,-1.3487,-1.3513,-1.352,-1.3557,-1.3556,-1.358,-1.359,-1.3642,-1.3664,-1.3642,-1.3729,-1.3716,-1.3721,-1.3713,-1.3718,-1.3721,-1.3716,-1.364,0,0,0,0,0,-1.3304,-1.3342,-1.3384,-1.3428,-1.3445,-1.3476,-1.3499,-1.3512,-1.3549,-1.3563,-1.3593,-1.3628,-1.3668,-1.3694,-1.3732,-1.3788,-1.3799,-1.3812,-1.3815,-1.3818,-1.3823,-1.3856,-1.3863,-1.3793,-1.3793,-1.3793,0,0,-1.3315,-1.3347,-1.3369,-1.3427,-1.3455,-1.3494,-1.3488,-1.3529,-1.3559,-1.3569,-1.3621,-1.3644,-1.3685,-1.374,-1.3765,-1.376,-1.3845,-1.3822,-1.3824,-1.3828,-1.386,-1.3867,-1.3873,-1.3795,-1.3795,-1.3795,0,0,-1.3355,-1.3382,-1.3422,-1.3451,-1.3493,-1.3514,-1.3524,-1.3568,-1.3584,-1.3636,-1.3645,-1.3681,-1.3748,-1.3778,-1.3802,-1.3854,-1.386,-1.3866,-1.3885,-1.3917,-1.3923,-1.3928,-1.3949,-1.3955,-1.3871,-1.3871,-1.3871,0,-1.3362,-1.3421,-1.3442,-1.3484,-1.351,-1.3521,-1.3563,-1.3589,-1.3642,-1.366,-1.3653,-1.374,-1.3768,-1.3831,-1.3844,-1.3862,-1.3875,-1.3861,-1.392,-1.3926,-1.3931,-1.3951,-1.3958,-1.3871,-1.3871,-1.3871,-1.3871,0,-1.343,-1.3471,-1.3498,-1.355,-1.3578,-1.362,-1.3648,-1.3674,-1.3685,-1.3707,-1.3761,-1.3795,-1.3842,-1.3858,-1.3868,-1.3923,-1.3918,-1.3915,-1.3903,-1.3938,-1.3957,-1.3964,-1.3872,-1.3872,-1.3872,-1.3872,0,0,-1.3468,-1.3531,-1.3541,-1.3566,-1.3614,-1.3646,-1.3688,-1.3734,-1.3758,-1.3794,-1.3831,-1.3889,-1.3887,-1.3914,-1.3928,-1.3956,-1.3998,-1.395,-1.3952,-1.396,-1.4062,-1.4065,-1.4074,-1.4001,-1.4003,-1.4004,-1.4059,0,-1.3515,-1.3591,-1.3611,-1.3676,-1.3715,-1.3727,-1.3764,-1.3798,-1.382,-1.3857,-1.388,-1.3922,-1.3915,-1.3932,-1.396,-1.3987,-1.4019,-1.3983,-1.4038,-1.4039,-1.4029,-1.4083,-1.4087,-1.4137,-1.4067,-1.4068,-1.4069,0,-1.3579,-1.3618,-1.3686,-1.3731,-1.3749,-1.3781,-1.3826,-1.3861,-1.39,-1.3914,-1.3945,-1.3957,-1.4002,-1.3986,-1.4051,-1.4026,-1.4049,-1.4066,-1.4068,-1.4076,-1.4057,-1.4094,-1.4154,-1.4162,-1.4081,-1.408,-1.4079,0,-1.3603,-1.3672,-1.3722,-1.3742,-1.3795,-1.3819,-1.3842,-1.388,-1.3907,-1.3946,-1.3964,-1.4008,-1.4032,-1.4066,-1.409,-1.4076,-1.4153,-1.4138,-1.4167,-1.4167,-1.4184,-1.4183,-1.425,-1.4196,-1.4196,-1.4196,-1.4196,0,-1.3654,-1.3696,-1.3734,-1.3765,-1.3813,-1.3836,-1.3883,-1.3907,-1.3941,-1.3978,-1.3991,-1.4025,-1.4053,-1.4092,-1.4111,-1.4162,-1.4173,-1.4186,-1.4191,-1.4186,-1.4185,-1.4203,-1.4201,-1.4198,-1.4197,-1.4197,-1.4197,0,-1.3689,-1.3716,-1.3772,-1.3818,-1.3831,-1.3864,-1.3904,-1.3935,-1.3957,-1.4004,-1.4016,-1.4051,-1.4097,-1.4124,-1.4182,-1.4195,-1.4253,-1.4255,-1.4239,-1.4242,-1.427,-1.4268,-1.4353,-1.4366,-1.4301,-1.4302,-1.4302,0,-1.3721,-1.3754,-1.3804,-1.3829,-1.3853,-1.3894,-1.3922,-1.3946,-1.3975,-1.4023,-1.4049,-1.4096,-1.4135,-1.4208,-1.4239,-1.4284,-1.4289,-1.4315,-1.4295,-1.429,-1.4292,-1.429,-1.4294,-1.4319,-1.432,-1.432,-1.4321,0,-1.3775,-1.3787,-1.3827,-1.3872,-1.3905,-1.3941,-1.3977,-1.3997,-1.4028,-1.406,-1.4107,-1.4137,-1.4197,-1.4244,-1.4292,-1.4316,-1.4325,-1.4326,-1.4336,-1.4332,-1.4323,-1.4331,-1.4251,-1.4325,-1.4324,-1.4324,-1.4324,-1.4324,-1.3811,-1.3842,-1.3882,-1.3926,-1.3956,-1.399,-1.4022,-1.4049,-1.4089,-1.4139,-1.4151,-1.4202,-1.4242,-1.4307,-1.4333,-1.4373,-1.4369,-1.4382,-1.4385,-1.4389,-1.4391,-1.4315,-1.4381,-1.4381,-1.4381,-1.4381,-1.4381,0,-1.3868,-1.3895,-1.3935,-1.3986,-1.4021,-1.4024,-1.4065,-1.4094,-1.4139,-1.4175,-1.4214,-1.4269,-1.4315,-1.435,-1.4397,-1.4423,-1.4428,-1.4435,-1.4434,-1.444,-1.4391,-1.4379,-1.443,-1.443,-1.443,-1.443,-1.443,-1.443,-1.3902,-1.3954,-1.3971,-1.4039,-1.4066,-1.4115,-1.4139,-1.417,-1.42,-1.4261,-1.43,-1.4322,-1.4359,-1.4409,-1.4452,-1.4461,-1.4479,-1.4485,-1.4495,-1.4449,-1.4444,-1.4439,-1.4428,-1.4488,-1.4488,-1.4542,-1.4542,-1.4543]}]]